Time,TemperatureF,DewpointF,PressureIn,WindDirection,WindDirectionDegrees,WindSpeedMPH,WindSpeedGustMPH,Humidity,HourlyPrecipIn,Conditions,Clouds,dailyrainin,SoftwareType,DateUTC
2013-10-24 00:01:00,42.4,26.5,28.91,NNW,329,0.0,2.7,53,0.00,,---,0.00,VWS V14.01,2013-10-24 04:01:00,
2013-10-24 00:03:00,42.4,26.5,28.91,NNW,329,0.0,0.0,53,0.00,,---,0.00,VWS V14.01,2013-10-24 04:03:00,
2013-10-24 00:04:00,42.4,26.5,28.91,NNW,329,0.0,0.0,53,0.00,,---,0.00,VWS V14.01,2013-10-24 04:04:00,
2013-10-24 00:09:00,42.4,26.5,28.91,ESE,104,0.0,0.0,53,0.00,,---,0.00,VWS V14.01,2013-10-24 04:09:00,
2013-10-24 00:10:00,42.3,26.4,28.91,ESE,104,0.0,0.0,53,0.00,,---,0.00,VWS V14.01,2013-10-24 04:10:00,
2013-10-24 00:14:00,42.3,26.8,28.91,ESE,104,0.0,0.0,54,0.00,,---,0.00,VWS V14.01,2013-10-24 04:14:00,
2013-10-24 00:20:00,42.3,26.8,28.91,NW,319,0.0,0.0,54,0.00,,---,0.00,VWS V14.01,2013-10-24 04:20:00,
2013-10-24 00:21:00,42.3,26.8,28.91,NW,319,0.0,0.0,54,0.00,,---,0.00,VWS V14.01,2013-10-24 04:21:00,
2013-10-24 00:26:00,42.3,26.8,28.91,ENE,65,0.0,0.0,54,0.00,,---,0.00,VWS V14.01,2013-10-24 04:26:00,
2013-10-24 00:31:00,42.3,26.8,28.91,NW,313,0.0,0.0,54,0.00,,---,0.00,VWS V14.01,2013-10-24 04:31:00,
2013-10-24 00:36:00,42.4,27.0,28.91,West,281,0.0,0.0,54,0.00,,---,0.00,VWS V14.01,2013-10-24 04:36:00,
2013-10-24 00:41:00,42.4,27.4,28.91,ENE,73,0.0,4.0,55,0.00,,---,0.00,VWS V14.01,2013-10-24 04:41:00,
2013-10-24 00:46:00,42.6,27.6,28.91,North,351,0.0,0.0,55,0.00,,---,0.00,VWS V14.01,2013-10-24 04:46:00,
2013-10-24 00:51:00,42.6,27.6,28.91,East,95,0.0,4.0,55,0.00,,---,0.00,VWS V14.01,2013-10-24 04:51:00,
2013-10-24 00:56:00,42.4,27.0,28.91,East,95,0.0,0.0,54,0.00,,---,0.00,VWS V14.01,2013-10-24 04:56:00,
2013-10-24 01:01:00,42.4,27.4,28.91,East,95,0.0,0.0,55,0.00,,---,0.00,VWS V14.01,2013-10-24 05:01:00,
2013-10-24 01:06:00,42.3,27.3,28.91,North,6,0.0,2.7,55,0.00,,---,0.00,VWS V14.01,2013-10-24 05:06:00,
2013-10-24 01:11:00,42.1,27.5,28.91,NNW,340,0.0,0.0,56,0.00,,---,0.00,VWS V14.01,2013-10-24 05:11:00,
2013-10-24 01:16:00,41.7,27.2,28.91,NNW,340,0.0,0.0,56,0.00,,---,0.00,VWS V14.01,2013-10-24 05:16:00,
2013-10-24 01:21:00,41.4,27.3,28.91,NNW,340,0.0,0.0,57,0.00,,---,0.00,VWS V14.01,2013-10-24 05:21:00,
2013-10-24 01:26:00,41.2,27.1,28.91,NNW,340,0.0,0.0,57,0.00,,---,0.00,VWS V14.01,2013-10-24 05:26:00,
2013-10-24 01:31:00,41.2,27.5,28.91,NNE,26,0.0,0.0,58,0.00,,---,0.00,VWS V14.01,2013-10-24 05:31:00,
2013-10-24 01:36:00,40.8,27.6,28.91,NNE,26,0.0,0.0,59,0.00,,---,0.00,VWS V14.01,2013-10-24 05:36:00,
2013-10-24 01:41:00,40.6,27.9,28.91,East,83,0.0,0.0,60,0.00,,---,0.00,VWS V14.01,2013-10-24 05:41:00,
2013-10-24 01:46:00,40.5,27.7,28.91,East,83,0.0,0.0,60,0.00,,---,0.00,VWS V14.01,2013-10-24 05:46:00,
2013-10-24 01:52:00,40.3,28.3,28.91,NNW,333,0.0,0.0,62,0.00,,---,0.00,VWS V14.01,2013-10-24 05:52:00,
2013-10-24 01:57:00,40.3,28.3,28.91,NNW,340,0.0,0.0,62,0.00,,---,0.00,VWS V14.01,2013-10-24 05:57:00,
2013-10-24 02:02:00,40.3,28.3,28.91,NNW,340,0.0,0.0,62,0.00,,---,0.00,VWS V14.01,2013-10-24 06:02:00,
2013-10-24 02:07:00,40.3,28.3,28.91,NNW,340,0.0,0.0,62,0.00,,---,0.00,VWS V14.01,2013-10-24 06:07:00,
2013-10-24 02:12:00,40.1,28.1,28.91,NNW,340,0.0,0.0,62,0.00,,---,0.00,VWS V14.01,2013-10-24 06:12:00,
2013-10-24 02:17:00,39.9,28.0,28.94,NNW,340,0.0,0.0,62,0.00,,---,0.00,VWS V14.01,2013-10-24 06:17:00,
2013-10-24 02:22:00,39.7,27.8,28.94,NNW,340,0.0,0.0,62,0.00,,---,0.00,VWS V14.01,2013-10-24 06:22:00,
2013-10-24 02:27:00,39.7,27.8,28.94,NNW,340,0.0,0.0,62,0.00,,---,0.00,VWS V14.01,2013-10-24 06:27:00,
2013-10-24 02:32:00,39.6,27.6,28.94,NNW,340,0.0,0.0,62,0.00,,---,0.00,VWS V14.01,2013-10-24 06:32:00,
2013-10-24 02:37:00,39.6,27.6,28.94,NNW,340,0.0,0.0,62,0.00,,---,0.00,VWS V14.01,2013-10-24 06:37:00,
2013-10-24 02:42:00,39.6,27.6,28.94,NNW,340,0.0,0.0,62,0.00,,---,0.00,VWS V14.01,2013-10-24 06:42:00,
2013-10-24 02:48:00,39.4,27.5,28.94,NNW,340,0.0,0.0,62,0.00,,---,0.00,VWS V14.01,2013-10-24 06:48:00,
2013-10-24 02:53:00,39.4,27.5,28.94,NNW,340,0.0,0.0,62,0.00,,---,0.00,VWS V14.01,2013-10-24 06:53:00,
2013-10-24 02:58:00,39.4,27.5,28.94,NNW,340,0.0,0.0,62,0.00,,---,0.00,VWS V14.01,2013-10-24 06:58:00,
2013-10-24 03:03:00,39.4,27.1,28.94,NNW,340,0.0,0.0,61,0.00,,---,0.00,VWS V14.01,2013-10-24 07:03:00,
2013-10-24 03:08:00,39.2,26.9,28.94,NNW,340,0.0,0.0,61,0.00,,---,0.00,VWS V14.01,2013-10-24 07:08:00,
2013-10-24 03:13:00,39.2,26.9,28.94,NNW,340,0.0,0.0,61,0.00,,---,0.00,VWS V14.01,2013-10-24 07:13:00,
2013-10-24 03:18:00,39.0,26.7,28.94,NNW,340,0.0,0.0,61,0.00,,---,0.00,VWS V14.01,2013-10-24 07:18:00,
2013-10-24 03:23:00,38.8,26.6,28.94,NNW,340,0.0,0.0,61,0.00,,---,0.00,VWS V14.01,2013-10-24 07:23:00,
2013-10-24 03:28:00,38.7,26.4,28.94,NNW,340,0.0,0.0,61,0.00,,---,0.00,VWS V14.01,2013-10-24 07:28:00,
2013-10-24 03:33:00,38.7,26.4,28.94,NNW,340,0.0,0.0,61,0.00,,---,0.00,VWS V14.01,2013-10-24 07:33:00,
2013-10-24 03:38:00,38.7,26.4,28.94,NNW,340,0.0,0.0,61,0.00,,---,0.00,VWS V14.01,2013-10-24 07:38:00,
2013-10-24 03:43:00,38.5,26.2,28.94,NNW,340,0.0,0.0,61,0.00,,---,0.00,VWS V14.01,2013-10-24 07:43:00,
2013-10-24 03:48:00,38.5,26.2,28.94,NNW,340,0.0,0.0,61,0.00,,---,0.00,VWS V14.01,2013-10-24 07:48:00,
2013-10-24 03:54:00,38.3,26.0,28.94,NNW,340,0.0,0.0,61,0.00,,---,0.00,VWS V14.01,2013-10-24 07:54:00,
2013-10-24 03:59:00,38.1,25.9,28.94,NNW,340,0.0,0.0,61,0.00,,---,0.00,VWS V14.01,2013-10-24 07:59:00,
2013-10-24 04:04:00,38.1,26.3,28.94,NNW,340,0.0,0.0,62,0.00,,---,0.00,VWS V14.01,2013-10-24 08:04:00,
2013-10-24 04:09:00,38.1,26.3,28.94,NNW,340,0.0,0.0,62,0.00,,---,0.00,VWS V14.01,2013-10-24 08:09:00,
2013-10-24 04:14:00,38.1,26.3,28.94,NNW,340,0.0,0.0,62,0.00,,---,0.00,VWS V14.01,2013-10-24 08:14:00,
2013-10-24 04:19:00,37.9,26.1,28.97,NNW,340,0.0,0.0,62,0.00,,---,0.00,VWS V14.01,2013-10-24 08:19:00,
2013-10-24 04:24:00,37.9,26.1,28.97,NNW,340,0.0,0.0,62,0.00,,---,0.00,VWS V14.01,2013-10-24 08:24:00,
2013-10-24 04:29:00,37.9,26.1,28.97,NNW,340,0.0,0.0,62,0.00,,---,0.00,VWS V14.01,2013-10-24 08:29:00,
2013-10-24 04:34:00,37.9,26.1,28.97,NNW,340,0.0,0.0,62,0.00,,---,0.00,VWS V14.01,2013-10-24 08:34:00,
2013-10-24 04:39:00,37.9,26.5,28.97,NNW,340,0.0,0.0,63,0.00,,---,0.00,VWS V14.01,2013-10-24 08:39:00,
2013-10-24 04:44:00,37.9,26.5,28.97,NNW,340,0.0,0.0,63,0.00,,---,0.00,VWS V14.01,2013-10-24 08:44:00,
2013-10-24 04:50:00,37.8,25.9,28.97,NNW,340,0.0,0.0,62,0.00,,---,0.00,VWS V14.01,2013-10-24 08:50:00,
2013-10-24 04:55:00,37.8,26.3,28.97,NNW,340,0.0,0.0,63,0.00,,---,0.00,VWS V14.01,2013-10-24 08:55:00,
2013-10-24 05:00:00,37.6,26.1,28.97,NNW,340,0.0,0.0,63,0.00,,---,0.00,VWS V14.01,2013-10-24 09:00:00,
2013-10-24 05:05:00,37.8,26.3,28.97,NNW,340,0.0,0.0,63,0.00,,---,0.00,VWS V14.01,2013-10-24 09:05:00,
2013-10-24 05:10:00,37.8,26.3,28.97,NNW,340,0.0,0.0,63,0.00,,---,0.00,VWS V14.01,2013-10-24 09:10:00,
2013-10-24 05:15:00,37.6,26.1,28.97,NNW,340,0.0,0.0,63,0.00,,---,0.00,VWS V14.01,2013-10-24 09:15:00,
2013-10-24 05:20:00,37.6,26.1,28.97,NNW,340,0.0,0.0,63,0.00,,---,0.00,VWS V14.01,2013-10-24 09:20:00,
2013-10-24 05:25:00,37.6,26.1,28.97,NNW,340,0.0,0.0,63,0.00,,---,0.00,VWS V14.01,2013-10-24 09:25:00,
2013-10-24 05:30:00,37.4,26.0,29.00,NNW,340,0.0,0.0,63,0.00,,---,0.00,VWS V14.01,2013-10-24 09:30:00,
2013-10-24 05:35:00,37.4,26.0,29.00,NNW,340,0.0,0.0,63,0.00,,---,0.00,VWS V14.01,2013-10-24 09:35:00,
2013-10-24 05:40:00,37.4,26.0,29.00,NNW,340,0.0,0.0,63,0.00,,---,0.00,VWS V14.01,2013-10-24 09:40:00,
2013-10-24 05:45:00,37.2,25.8,29.00,NNW,340,0.0,0.0,63,0.00,,---,0.00,VWS V14.01,2013-10-24 09:45:00,
2013-10-24 05:50:00,37.2,25.8,29.00,NNW,340,0.0,0.0,63,0.00,,---,0.00,VWS V14.01,2013-10-24 09:50:00,
2013-10-24 05:55:00,37.2,26.2,29.00,SE,143,0.0,0.0,64,0.00,,---,0.00,VWS V14.01,2013-10-24 09:55:00,
2013-10-24 06:00:00,37.2,26.2,29.00,SE,143,0.0,0.0,64,0.00,,---,0.00,VWS V14.01,2013-10-24 10:00:00,
2013-10-24 06:05:00,37.0,26.0,29.00,SSE,160,0.0,3.1,64,0.00,,---,0.00,VWS V14.01,2013-10-24 10:05:00,
2013-10-24 06:10:00,37.0,26.0,29.00,SSE,160,0.0,0.0,64,0.00,,---,0.00,VWS V14.01,2013-10-24 10:10:00,
2013-10-24 06:15:00,37.0,26.0,29.00,SSE,160,0.0,0.0,64,0.00,,---,0.00,VWS V14.01,2013-10-24 10:15:00,
2013-10-24 06:20:00,37.0,26.0,29.00,SSE,160,0.0,0.0,64,0.00,,---,0.00,VWS V14.01,2013-10-24 10:20:00,
2013-10-24 06:25:00,37.0,26.0,29.00,SSE,160,0.0,0.0,64,0.00,,---,0.00,VWS V14.01,2013-10-24 10:25:00,
2013-10-24 06:30:00,37.0,26.0,29.00,SSE,160,0.0,0.0,64,0.00,,---,0.00,VWS V14.01,2013-10-24 10:30:00,
2013-10-24 06:35:00,36.9,25.8,29.00,SSE,160,0.0,0.0,64,0.00,,---,0.00,VWS V14.01,2013-10-24 10:35:00,
2013-10-24 06:40:00,36.9,25.8,29.00,SSE,160,0.0,0.0,64,0.00,,---,0.00,VWS V14.01,2013-10-24 10:40:00,
2013-10-24 06:45:00,36.7,25.7,29.00,SSE,160,0.0,0.0,64,0.00,,---,0.00,VWS V14.01,2013-10-24 10:45:00,
2013-10-24 06:50:00,36.7,26.0,29.00,SSE,160,0.0,0.0,65,0.00,,---,0.00,VWS V14.01,2013-10-24 10:50:00,
2013-10-24 06:55:00,36.7,26.0,29.00,SE,141,0.0,0.0,65,0.00,,---,0.00,VWS V14.01,2013-10-24 10:55:00,
2013-10-24 07:00:00,36.7,26.0,29.03,SE,130,4.0,4.0,65,0.00,,---,0.00,VWS V14.01,2013-10-24 11:00:00,
2013-10-24 07:06:00,36.5,25.9,29.03,SSE,149,0.0,0.0,65,0.00,,---,0.00,VWS V14.01,2013-10-24 11:06:00,
2013-10-24 07:11:00,36.5,25.9,29.03,SSE,149,0.0,0.0,65,0.00,,---,0.00,VWS V14.01,2013-10-24 11:11:00,
2013-10-24 07:16:00,36.3,26.1,29.03,ESE,121,0.0,0.0,66,0.00,,---,0.00,VWS V14.01,2013-10-24 11:16:00,
2013-10-24 07:21:00,36.3,26.1,29.03,SE,143,0.0,0.0,66,0.00,,---,0.00,VWS V14.01,2013-10-24 11:21:00,
2013-10-24 07:26:00,36.3,26.1,29.03,SE,126,0.0,0.0,66,0.00,,---,0.00,VWS V14.01,2013-10-24 11:26:00,
2013-10-24 07:31:00,36.5,26.6,29.03,ENE,68,0.0,0.0,67,0.00,,---,0.00,VWS V14.01,2013-10-24 11:31:00,
2013-10-24 07:36:00,36.7,26.8,29.03,ESE,115,0.0,0.0,67,0.00,,---,0.00,VWS V14.01,2013-10-24 11:36:00,
2013-10-24 07:41:00,36.9,27.3,29.03,East,92,0.0,0.0,68,0.00,,---,0.00,VWS V14.01,2013-10-24 11:41:00,
2013-10-24 07:46:00,37.0,27.5,29.03,ESE,118,0.0,0.0,68,0.00,,---,0.00,VWS V14.01,2013-10-24 11:46:00,
2013-10-24 07:51:00,37.4,27.8,29.03,ESE,111,0.0,0.0,68,0.00,,---,0.00,VWS V14.01,2013-10-24 11:51:00,
2013-10-24 07:56:00,37.8,28.5,29.03,ESE,117,0.0,0.0,69,0.00,,---,0.00,VWS V14.01,2013-10-24 11:56:00,
2013-10-24 08:01:00,38.1,28.9,29.03,ESE,110,0.0,3.6,69,0.00,,---,0.00,VWS V14.01,2013-10-24 12:01:00,
2013-10-24 08:06:00,38.5,28.9,29.03,ENE,65,0.0,0.0,68,0.00,,---,0.00,VWS V14.01,2013-10-24 12:06:00,
2013-10-24 08:11:00,38.7,29.0,29.03,ENE,77,0.0,0.0,68,0.00,,---,0.00,VWS V14.01,2013-10-24 12:11:00,
2013-10-24 08:16:00,39.0,29.0,29.06,ENE,78,0.0,0.0,67,0.00,,---,0.00,VWS V14.01,2013-10-24 12:16:00,
2013-10-24 08:21:00,39.2,28.8,29.06,ENE,78,0.0,0.0,66,0.00,,---,0.00,VWS V14.01,2013-10-24 12:21:00,
2013-10-24 08:26:00,39.7,29.0,29.06,ENE,61,0.0,0.0,65,0.00,,---,0.00,VWS V14.01,2013-10-24 12:26:00,
2013-10-24 08:31:00,40.1,28.9,29.06,East,83,0.0,0.0,64,0.00,,---,0.00,VWS V14.01,2013-10-24 12:31:00,
2013-10-24 08:36:00,40.6,29.0,29.06,East,88,0.0,0.0,63,0.00,,---,0.00,VWS V14.01,2013-10-24 12:36:00,
2013-10-24 08:41:00,40.8,28.0,29.06,ENE,76,0.0,0.0,60,0.00,,---,0.00,VWS V14.01,2013-10-24 12:41:00,
2013-10-24 08:46:00,41.5,27.9,29.06,SW,227,0.0,0.0,58,0.00,,---,0.00,VWS V14.01,2013-10-24 12:46:00,
2013-10-24 08:51:00,41.7,26.8,29.06,SE,126,0.0,0.0,55,0.00,,---,0.00,VWS V14.01,2013-10-24 12:51:00,
2013-10-24 08:56:00,42.1,26.2,29.06,North,351,2.7,7.4,53,0.00,,---,0.00,VWS V14.01,2013-10-24 12:56:00,
2013-10-24 09:01:00,42.4,25.6,29.06,SSW,198,0.0,0.0,51,0.00,,---,0.00,VWS V14.01,2013-10-24 13:01:00,
2013-10-24 09:06:00,42.8,24.5,29.06,East,99,0.0,4.0,48,0.00,,---,0.00,VWS V14.01,2013-10-24 13:06:00,
2013-10-24 09:11:00,43.2,23.8,29.06,SSE,161,0.0,6.7,46,0.00,,---,0.00,VWS V14.01,2013-10-24 13:11:00,
2013-10-24 09:16:00,43.5,23.1,29.06,NNW,342,0.0,3.1,44,0.00,,---,0.00,VWS V14.01,2013-10-24 13:16:00,
2013-10-24 09:21:00,43.9,21.7,29.06,ESE,114,4.0,4.9,41,0.00,,---,0.00,VWS V14.01,2013-10-24 13:21:00,
2013-10-24 09:26:00,44.4,21.6,29.06,East,93,2.7,4.0,40,0.00,,---,0.00,VWS V14.01,2013-10-24 13:26:00,
2013-10-24 09:31:00,44.8,21.4,29.06,East,81,0.0,4.5,39,0.00,,---,0.00,VWS V14.01,2013-10-24 13:31:00,
2013-10-24 09:36:00,45.0,20.9,29.06,ENE,60,0.0,3.1,38,0.00,,---,0.00,VWS V14.01,2013-10-24 13:36:00,
2013-10-24 09:41:00,45.5,21.4,29.06,ESE,122,2.7,4.5,38,0.00,,---,0.00,VWS V14.01,2013-10-24 13:41:00,
2013-10-24 09:46:00,45.9,21.1,29.06,ESE,115,0.0,3.6,37,0.00,,---,0.00,VWS V14.01,2013-10-24 13:46:00,
2013-10-24 09:51:00,46.2,20.8,29.06,East,83,0.0,0.0,36,0.00,,---,0.00,VWS V14.01,2013-10-24 13:51:00,
2013-10-24 09:56:00,46.6,19.7,29.06,North,9,0.0,3.6,34,0.00,,---,0.00,VWS V14.01,2013-10-24 13:56:00,
2013-10-24 10:01:00,46.8,17.7,29.06,East,80,0.0,0.0,31,0.00,,---,0.00,VWS V14.01,2013-10-24 14:01:00,
2013-10-24 10:06:00,46.8,17.0,29.06,SE,129,0.0,4.0,30,0.00,,---,0.00,VWS V14.01,2013-10-24 14:06:00,
2013-10-24 10:11:00,46.9,16.4,29.06,ESE,112,0.0,3.1,29,0.00,,---,0.00,VWS V14.01,2013-10-24 14:11:00,
2013-10-24 10:16:00,47.3,15.9,29.06,East,81,3.1,4.0,28,0.00,,---,0.00,VWS V14.01,2013-10-24 14:16:00,
2013-10-24 10:21:00,47.5,16.0,29.06,East,90,0.0,3.6,28,0.00,,---,0.00,VWS V14.01,2013-10-24 14:21:00,
2013-10-24 10:26:00,47.7,15.3,29.06,NW,322,3.6,5.4,27,0.00,,---,0.00,VWS V14.01,2013-10-24 14:26:00,
2013-10-24 10:31:00,47.8,15.5,29.06,SE,138,0.0,3.1,27,0.00,,---,0.00,VWS V14.01,2013-10-24 14:31:00,
2013-10-24 10:36:00,48.0,15.6,29.06,NNW,333,0.0,4.5,27,0.00,,---,0.00,VWS V14.01,2013-10-24 14:36:00,
2013-10-24 10:41:00,48.2,15.8,29.06,East,81,2.7,5.8,27,0.00,,---,0.00,VWS V14.01,2013-10-24 14:41:00,
2013-10-24 10:46:00,48.0,13.0,29.06,ESE,121,4.0,4.9,24,0.00,,---,0.00,VWS V14.01,2013-10-24 14:46:00,
2013-10-24 10:51:00,48.0,13.0,29.06,ESE,104,3.6,3.6,24,0.00,,---,0.00,VWS V14.01,2013-10-24 14:51:00,
2013-10-24 10:56:00,48.0,13.0,29.06,SW,236,3.1,4.9,24,0.00,,---,0.00,VWS V14.01,2013-10-24 14:56:00,
2013-10-24 11:01:00,48.0,13.0,29.06,NNE,33,0.0,5.4,24,0.00,,---,0.00,VWS V14.01,2013-10-24 15:01:00,
2013-10-24 11:06:00,48.0,13.0,29.06,East,96,0.0,5.4,24,0.00,,---,0.00,VWS V14.01,2013-10-24 15:06:00,
2013-10-24 11:11:00,48.0,13.0,29.06,East,82,4.0,6.3,24,0.00,,---,0.00,VWS V14.01,2013-10-24 15:11:00,
2013-10-24 11:16:00,48.2,13.1,29.03,ENE,76,4.9,6.7,24,0.00,,---,0.00,VWS V14.01,2013-10-24 15:16:00,
2013-10-24 11:21:00,48.4,10.3,29.03,NE,38,3.6,6.7,21,0.00,,---,0.00,VWS V14.01,2013-10-24 15:21:00,
2013-10-24 11:26:00,48.6,10.4,29.03,East,97,0.0,4.5,21,0.00,,---,0.00,VWS V14.01,2013-10-24 15:26:00,
2013-10-24 11:31:00,48.6,10.4,29.03,South,182,0.0,5.8,21,0.00,,---,0.00,VWS V14.01,2013-10-24 15:31:00,
2013-10-24 11:36:00,48.4,10.3,29.03,SSE,167,2.7,5.4,21,0.00,,---,0.00,VWS V14.01,2013-10-24 15:36:00,
2013-10-24 11:41:00,48.4,10.3,29.03,ENE,78,0.0,4.5,21,0.00,,---,0.00,VWS V14.01,2013-10-24 15:41:00,
2013-10-24 11:46:00,48.2,10.1,29.03,NE,46,2.7,4.0,21,0.00,,---,0.00,VWS V14.01,2013-10-24 15:46:00,
2013-10-24 11:51:00,48.2,13.1,29.03,North,351,3.1,5.8,24,0.00,,---,0.00,VWS V14.01,2013-10-24 15:51:00,
2013-10-24 11:56:00,48.4,13.3,29.03,ESE,105,4.5,4.5,24,0.00,,---,0.00,VWS V14.01,2013-10-24 15:56:00,
2013-10-24 12:01:00,48.0,13.0,29.03,NNE,14,0.0,5.8,24,0.00,,---,0.00,VWS V14.01,2013-10-24 16:01:00,
2013-10-24 12:06:00,48.4,13.3,29.03,NE,44,0.0,2.7,24,0.00,,---,0.00,VWS V14.01,2013-10-24 16:06:00,
2013-10-24 12:11:00,48.4,10.3,29.03,NNE,31,0.0,0.0,21,0.00,,---,0.00,VWS V14.01,2013-10-24 16:11:00,
2013-10-24 12:16:00,48.6,13.4,29.03,East,88,5.4,5.4,24,0.00,,---,0.00,VWS V14.01,2013-10-24 16:16:00,
2013-10-24 12:21:00,48.7,13.6,29.03,SE,138,4.5,4.5,24,0.00,,---,0.00,VWS V14.01,2013-10-24 16:21:00,
2013-10-24 12:26:00,48.9,10.7,29.03,NE,42,2.7,3.1,21,0.00,,---,0.00,VWS V14.01,2013-10-24 16:26:00,
2013-10-24 12:31:00,49.1,10.9,29.03,SE,134,0.0,4.9,21,0.00,,---,0.00,VWS V14.01,2013-10-24 16:31:00,
2013-10-24 12:36:00,49.6,11.3,29.03,East,88,4.9,4.9,21,0.00,,---,0.00,VWS V14.01,2013-10-24 16:36:00,
2013-10-24 12:41:00,50.2,11.8,29.03,East,86,4.5,6.7,21,0.00,,---,0.00,VWS V14.01,2013-10-24 16:41:00,
2013-10-24 12:46:00,50.5,12.1,29.03,NW,324,3.1,4.5,21,0.00,,---,0.00,VWS V14.01,2013-10-24 16:46:00,
2013-10-24 12:51:00,50.7,10.0,29.03,East,96,3.1,3.6,19,0.00,,---,0.00,VWS V14.01,2013-10-24 16:51:00,
2013-10-24 12:56:00,50.7,12.2,29.03,ESE,118,3.6,4.5,21,0.00,,---,0.00,VWS V14.01,2013-10-24 16:56:00,
2013-10-24 13:01:00,50.2,9.5,29.03,South,170,0.0,0.0,19,0.00,,---,0.00,VWS V14.01,2013-10-24 17:01:00,
2013-10-24 13:06:00,49.5,8.9,29.03,ENE,78,3.6,5.4,19,0.00,,---,0.00,VWS V14.01,2013-10-24 17:06:00,
2013-10-24 13:11:00,49.3,8.8,29.03,SE,124,0.0,0.0,19,0.00,,---,0.00,VWS V14.01,2013-10-24 17:11:00,
2013-10-24 13:16:00,48.9,8.5,29.03,ESE,107,0.0,2.7,19,0.00,,---,0.00,VWS V14.01,2013-10-24 17:16:00,
2013-10-24 13:21:00,48.7,8.3,29.03,NE,39,2.7,3.1,19,0.00,,---,0.00,VWS V14.01,2013-10-24 17:21:00,
2013-10-24 13:26:00,48.9,10.7,29.03,SE,136,0.0,0.0,21,0.00,,---,0.00,VWS V14.01,2013-10-24 17:26:00,
2013-10-24 13:31:00,49.6,11.3,29.00,ENE,76,0.0,3.6,21,0.00,,---,0.00,VWS V14.01,2013-10-24 17:31:00,
2013-10-24 13:36:00,50.2,9.5,29.00,SE,142,2.7,3.1,19,0.00,,---,0.00,VWS V14.01,2013-10-24 17:36:00,
2013-10-24 13:41:00,50.4,9.7,29.00,NW,311,0.0,4.0,19,0.00,,---,0.00,VWS V14.01,2013-10-24 17:41:00,
2013-10-24 13:46:00,50.5,9.8,29.00,SSW,205,0.0,0.0,19,0.00,,---,0.00,VWS V14.01,2013-10-24 17:46:00,
2013-10-24 13:51:00,50.7,10.0,29.00,ESE,108,0.0,0.0,19,0.00,,---,0.00,VWS V14.01,2013-10-24 17:51:00,
2013-10-24 13:56:00,51.3,9.2,29.00,ESE,118,0.0,4.9,18,0.00,,---,0.00,VWS V14.01,2013-10-24 17:56:00,
2013-10-24 14:01:00,51.3,9.2,29.00,NNW,328,3.6,3.6,18,0.00,,---,0.00,VWS V14.01,2013-10-24 18:01:00,
2013-10-24 14:06:00,51.4,9.4,29.00,SE,131,0.0,4.9,18,0.00,,---,0.00,VWS V14.01,2013-10-24 18:06:00,
2013-10-24 14:11:00,51.4,9.4,29.00,East,81,0.0,4.0,18,0.00,,---,0.00,VWS V14.01,2013-10-24 18:11:00,
2013-10-24 14:16:00,51.3,9.2,29.00,NNE,30,0.0,3.1,18,0.00,,---,0.00,VWS V14.01,2013-10-24 18:16:00,
2013-10-24 14:21:00,50.9,10.1,29.00,East,88,5.4,5.4,19,0.00,,---,0.00,VWS V14.01,2013-10-24 18:21:00,
2013-10-24 14:26:00,50.5,9.8,29.00,East,84,4.0,6.3,19,0.00,,---,0.00,VWS V14.01,2013-10-24 18:26:00,
2013-10-24 14:31:00,50.7,10.0,29.00,ENE,70,0.0,3.6,19,0.00,,---,0.00,VWS V14.01,2013-10-24 18:31:00,
2013-10-24 14:36:00,50.7,10.0,29.00,NNE,21,0.0,0.0,19,0.00,,---,0.00,VWS V14.01,2013-10-24 18:36:00,
2013-10-24 14:41:00,50.5,9.8,29.00,SSE,151,0.0,0.0,19,0.00,,---,0.00,VWS V14.01,2013-10-24 18:41:00,
2013-10-24 14:46:00,50.2,9.5,29.00,ENE,66,2.7,4.0,19,0.00,,---,0.00,VWS V14.01,2013-10-24 18:46:00,
2013-10-24 14:51:00,49.8,9.2,29.00,ESE,113,2.7,3.6,19,0.00,,---,0.00,VWS V14.01,2013-10-24 18:51:00,
2013-10-24 14:56:00,49.5,8.9,29.00,East,79,0.0,4.0,19,0.00,,---,0.00,VWS V14.01,2013-10-24 18:56:00,
2013-10-24 15:01:00,48.9,8.5,29.00,West,265,0.0,3.6,19,0.00,,---,0.00,VWS V14.01,2013-10-24 19:01:00,
2013-10-24 15:06:00,48.7,8.3,29.00,ENE,66,0.0,0.0,19,0.00,,---,0.00,VWS V14.01,2013-10-24 19:06:00,
2013-10-24 15:11:00,48.6,8.2,29.00,NNW,341,0.0,5.4,19,0.00,,---,0.00,VWS V14.01,2013-10-24 19:11:00,
2013-10-24 15:16:00,48.6,8.2,29.03,East,84,0.0,0.0,19,0.00,,---,0.00,VWS V14.01,2013-10-24 19:16:00,
2013-10-24 15:21:00,48.4,8.0,29.03,SE,143,0.0,0.0,19,0.00,,---,0.00,VWS V14.01,2013-10-24 19:21:00,
2013-10-24 15:26:00,48.2,10.1,29.03,NW,325,3.6,4.9,21,0.00,,---,0.00,VWS V14.01,2013-10-24 19:26:00,
2013-10-24 15:31:00,48.2,10.1,29.03,WNW,301,4.9,4.9,21,0.00,,---,0.00,VWS V14.01,2013-10-24 19:31:00,
2013-10-24 15:36:00,47.8,9.8,29.03,NW,321,0.0,2.7,21,0.00,,---,0.00,VWS V14.01,2013-10-24 19:36:00,
2013-10-24 15:41:00,47.1,14.9,29.03,SE,136,0.0,3.6,27,0.00,,---,0.00,VWS V14.01,2013-10-24 19:41:00,
2013-10-24 15:46:00,46.8,16.2,29.03,SE,136,0.0,0.0,29,0.00,,---,0.00,VWS V14.01,2013-10-24 19:46:00,
2013-10-24 15:51:00,46.4,16.7,29.03,SE,136,0.0,0.0,30,0.00,,---,0.00,VWS V14.01,2013-10-24 19:51:00,
2013-10-24 15:56:00,46.2,17.3,29.03,ESE,105,3.6,4.0,31,0.00,,---,0.00,VWS V14.01,2013-10-24 19:56:00,
2013-10-24 16:01:00,45.9,17.0,29.03,East,89,0.0,0.0,31,0.00,,---,0.00,VWS V14.01,2013-10-24 20:01:00,
2013-10-24 16:06:00,45.7,17.5,29.03,SE,130,3.1,3.1,32,0.00,,---,0.00,VWS V14.01,2013-10-24 20:06:00,
2013-10-24 16:11:00,45.5,18.1,29.03,NW,313,3.6,4.0,33,0.00,,---,0.00,VWS V14.01,2013-10-24 20:11:00,
2013-10-24 16:16:00,45.5,16.6,29.03,East,85,0.0,5.4,31,0.00,,---,0.00,VWS V14.01,2013-10-24 20:16:00,
2013-10-24 16:21:00,45.7,16.0,29.03,SE,133,0.0,3.1,30,0.00,,---,0.00,VWS V14.01,2013-10-24 20:21:00,
2013-10-24 16:26:00,45.9,15.4,29.03,NNW,332,3.1,8.3,29,0.00,,---,0.00,VWS V14.01,2013-10-24 20:26:00,
2013-10-24 16:31:00,45.9,14.6,29.03,SE,143,0.0,3.6,28,0.00,,---,0.00,VWS V14.01,2013-10-24 20:31:00,
2013-10-24 16:36:00,45.9,14.6,29.03,ENE,74,4.0,4.5,28,0.00,,---,0.00,VWS V14.01,2013-10-24 20:36:00,
2013-10-24 16:41:00,46.0,13.9,29.03,ESE,103,0.0,0.0,27,0.00,,---,0.00,VWS V14.01,2013-10-24 20:41:00,
2013-10-24 16:46:00,46.0,13.9,29.03,ESE,112,4.0,4.5,27,0.00,,---,0.00,VWS V14.01,2013-10-24 20:46:00,
2013-10-24 16:51:00,46.0,13.9,29.03,SE,143,4.0,4.0,27,0.00,,---,0.00,VWS V14.01,2013-10-24 20:51:00,
2013-10-24 16:56:00,46.2,14.1,29.03,East,99,0.0,4.9,27,0.00,,---,0.00,VWS V14.01,2013-10-24 20:56:00,
2013-10-24 17:01:00,46.2,14.1,29.03,ESE,113,0.0,3.1,27,0.00,,---,0.00,VWS V14.01,2013-10-24 21:01:00,
2013-10-24 17:06:00,46.0,13.9,29.03,SE,138,0.0,4.9,27,0.00,,---,0.00,VWS V14.01,2013-10-24 21:06:00,
2013-10-24 17:11:00,45.7,13.6,29.03,East,87,0.0,4.5,27,0.00,,---,0.00,VWS V14.01,2013-10-24 21:11:00,
2013-10-24 17:16:00,45.5,14.3,29.03,SE,131,0.0,0.0,28,0.00,,---,0.00,VWS V14.01,2013-10-24 21:16:00,
2013-10-24 17:21:00,45.1,14.0,29.03,ESE,111,0.0,0.0,28,0.00,,---,0.00,VWS V14.01,2013-10-24 21:21:00,
2013-10-24 17:26:00,45.0,13.8,29.03,SSE,159,0.0,3.6,28,0.00,,---,0.00,VWS V14.01,2013-10-24 21:26:00,
2013-10-24 17:31:00,44.6,13.5,29.06,SSE,159,0.0,0.0,28,0.00,,---,0.00,VWS V14.01,2013-10-24 21:31:00,
2013-10-24 17:36:00,44.4,14.2,29.06,ESE,109,0.0,3.6,29,0.00,,---,0.00,VWS V14.01,2013-10-24 21:36:00,
2013-10-24 17:41:00,44.2,14.0,29.06,ESE,109,0.0,0.0,29,0.00,,---,0.00,VWS V14.01,2013-10-24 21:41:00,
2013-10-24 17:46:00,44.1,13.9,29.06,ESE,109,0.0,0.0,29,0.00,,---,0.00,VWS V14.01,2013-10-24 21:46:00,
2013-10-24 17:51:00,44.1,14.6,29.06,ESE,109,0.0,0.0,30,0.00,,---,0.00,VWS V14.01,2013-10-24 21:51:00,
2013-10-24 17:56:00,43.7,14.3,29.06,ESE,109,0.0,0.0,30,0.00,,---,0.00,VWS V14.01,2013-10-24 21:56:00,
2013-10-24 18:01:00,43.5,14.2,29.06,ESE,109,0.0,0.0,30,0.00,,---,0.00,VWS V14.01,2013-10-24 22:01:00,
2013-10-24 18:06:00,43.3,14.8,29.06,ESE,109,0.0,0.0,31,0.00,,---,0.00,VWS V14.01,2013-10-24 22:06:00,
2013-10-24 18:11:00,43.3,14.8,29.06,ESE,109,0.0,0.0,31,0.00,,---,0.00,VWS V14.01,2013-10-24 22:11:00,
2013-10-24 18:16:00,43.2,14.6,29.06,ESE,109,0.0,0.0,31,0.00,,---,0.00,VWS V14.01,2013-10-24 22:16:00,
2013-10-24 18:21:00,43.0,14.4,29.06,ESE,109,0.0,0.0,31,0.00,,---,0.00,VWS V14.01,2013-10-24 22:21:00,
2013-10-24 18:26:00,42.8,15.0,29.06,ESE,109,0.0,0.0,32,0.00,,---,0.00,VWS V14.01,2013-10-24 22:26:00,
2013-10-24 18:31:00,42.6,14.8,29.06,ESE,109,0.0,0.0,32,0.00,,---,0.00,VWS V14.01,2013-10-24 22:31:00,
2013-10-24 18:36:00,42.4,15.4,29.06,ESE,109,0.0,0.0,33,0.00,,---,0.00,VWS V14.01,2013-10-24 22:36:00,
2013-10-24 18:41:00,42.4,16.7,29.06,ESE,109,0.0,0.0,35,0.00,,---,0.00,VWS V14.01,2013-10-24 22:41:00,
2013-10-24 18:46:00,42.3,16.6,29.09,ESE,109,0.0,0.0,35,0.00,,---,0.00,VWS V14.01,2013-10-24 22:46:00,
2013-10-24 18:51:00,42.3,16.6,29.09,ESE,109,0.0,0.0,35,0.00,,---,0.00,VWS V14.01,2013-10-24 22:51:00,
2013-10-24 18:56:00,42.3,15.9,29.09,ESE,109,0.0,0.0,34,0.00,,---,0.00,VWS V14.01,2013-10-24 22:56:00,
2013-10-24 19:01:00,42.1,16.4,29.09,ESE,109,0.0,0.0,35,0.00,,---,0.00,VWS V14.01,2013-10-24 23:01:00,
2013-10-24 19:06:00,42.1,16.4,29.09,ESE,109,0.0,0.0,35,0.00,,---,0.00,VWS V14.01,2013-10-24 23:06:00,
2013-10-24 19:11:00,41.9,16.3,29.09,ESE,109,0.0,0.0,35,0.00,,---,0.00,VWS V14.01,2013-10-24 23:11:00,
2013-10-24 19:16:00,41.7,16.8,29.09,ESE,109,0.0,0.0,36,0.00,,---,0.00,VWS V14.01,2013-10-24 23:16:00,
2013-10-24 19:21:00,41.7,16.8,29.09,ESE,109,0.0,0.0,36,0.00,,---,0.00,VWS V14.01,2013-10-24 23:21:00,
2013-10-24 19:26:00,41.5,16.6,29.09,ESE,109,0.0,0.0,36,0.00,,---,0.00,VWS V14.01,2013-10-24 23:26:00,
2013-10-24 19:31:00,41.5,16.6,29.09,ESE,109,0.0,0.0,36,0.00,,---,0.00,VWS V14.01,2013-10-24 23:31:00,
2013-10-24 19:36:00,41.5,16.6,29.09,ESE,109,0.0,0.0,36,0.00,,---,0.00,VWS V14.01,2013-10-24 23:36:00,
2013-10-24 19:41:00,41.4,16.4,29.09,ESE,122,0.0,0.0,36,0.00,,---,0.00,VWS V14.01,2013-10-24 23:41:00,
2013-10-24 19:46:00,41.4,16.4,29.09,ESE,123,0.0,0.0,36,0.00,,---,0.00,VWS V14.01,2013-10-24 23:46:00,
2013-10-24 19:51:00,41.2,16.9,29.09,ESE,122,0.0,0.0,37,0.00,,---,0.00,VWS V14.01,2013-10-24 23:51:00,
2013-10-24 19:56:00,41.0,16.7,29.09,ESE,123,0.0,0.0,37,0.00,,---,0.00,VWS V14.01,2013-10-24 23:56:00,
2013-10-24 20:01:00,41.0,16.7,29.09,SE,141,3.1,4.0,37,0.00,,---,0.00,VWS V14.01,2013-10-25 00:01:00,
2013-10-24 20:06:00,41.0,17.4,29.09,NW,316,0.0,0.0,38,0.00,,---,0.00,VWS V14.01,2013-10-25 00:06:00,
2013-10-24 20:11:00,40.8,17.2,29.09,NW,316,0.0,0.0,38,0.00,,---,0.00,VWS V14.01,2013-10-25 00:11:00,
2013-10-24 20:16:00,40.8,17.2,29.09,NW,316,0.0,0.0,38,0.00,,---,0.00,VWS V14.01,2013-10-25 00:16:00,
2013-10-24 20:21:00,40.6,17.0,29.09,NW,316,0.0,0.0,38,0.00,,---,0.00,VWS V14.01,2013-10-25 00:21:00,
2013-10-24 20:26:00,40.6,17.0,29.09,NW,316,0.0,0.0,38,0.00,,---,0.00,VWS V14.01,2013-10-25 00:26:00,
2013-10-24 20:31:00,40.6,17.0,29.09,ESE,104,0.0,0.0,38,0.00,,---,0.00,VWS V14.01,2013-10-25 00:31:00,
2013-10-24 20:36:00,40.6,17.0,29.09,ESE,104,0.0,0.0,38,0.00,,---,0.00,VWS V14.01,2013-10-25 00:36:00,
2013-10-24 20:41:00,40.6,17.0,29.09,ESE,104,0.0,0.0,38,0.00,,---,0.00,VWS V14.01,2013-10-25 00:41:00,
2013-10-24 20:46:00,40.5,16.9,29.09,SE,125,0.0,0.0,38,0.00,,---,0.00,VWS V14.01,2013-10-25 00:46:00,
2013-10-24 20:51:00,40.3,16.7,29.09,SE,125,0.0,0.0,38,0.00,,---,0.00,VWS V14.01,2013-10-25 00:51:00,
2013-10-24 20:56:00,40.3,16.7,29.09,SE,125,0.0,0.0,38,0.00,,---,0.00,VWS V14.01,2013-10-25 00:56:00,
2013-10-24 21:01:00,40.1,17.1,29.12,SE,125,0.0,0.0,39,0.00,,---,0.00,VWS V14.01,2013-10-25 01:01:00,
2013-10-24 21:06:00,39.9,17.0,29.12,SE,125,0.0,0.0,39,0.00,,---,0.00,VWS V14.01,2013-10-25 01:06:00,
2013-10-24 21:11:00,39.9,17.0,29.12,SE,125,0.0,0.0,39,0.00,,---,0.00,VWS V14.01,2013-10-25 01:11:00,
2013-10-24 21:16:00,39.9,17.0,29.12,SE,132,0.0,0.0,39,0.00,,---,0.00,VWS V14.01,2013-10-25 01:16:00,
2013-10-24 21:21:00,39.9,16.4,29.12,SE,132,0.0,0.0,38,0.00,,---,0.00,VWS V14.01,2013-10-25 01:21:00,
2013-10-24 21:26:00,39.9,16.4,29.12,ESE,108,0.0,0.0,38,0.00,,---,0.00,VWS V14.01,2013-10-25 01:26:00,
2013-10-24 21:31:00,39.9,17.0,29.12,ESE,108,0.0,0.0,39,0.00,,---,0.00,VWS V14.01,2013-10-25 01:31:00,
2013-10-24 21:36:00,39.9,17.0,29.12,ESE,107,0.0,0.0,39,0.00,,---,0.00,VWS V14.01,2013-10-25 01:36:00,
2013-10-24 21:41:00,39.7,16.2,29.12,ESE,108,0.0,0.0,38,0.00,,---,0.00,VWS V14.01,2013-10-25 01:41:00,
2013-10-24 21:46:00,39.7,16.2,29.12,SE,133,0.0,3.6,38,0.00,,---,0.00,VWS V14.01,2013-10-25 01:46:00,
2013-10-24 21:51:00,39.7,16.2,29.12,SSE,152,0.0,0.0,38,0.00,,---,0.00,VWS V14.01,2013-10-25 01:51:00,
2013-10-24 21:56:00,39.7,15.6,29.12,SSE,152,0.0,3.6,37,0.00,,---,0.00,VWS V14.01,2013-10-25 01:56:00,
2013-10-24 22:01:00,39.7,15.6,29.12,East,95,0.0,4.9,37,0.00,,---,0.00,VWS V14.01,2013-10-25 02:01:00,
2013-10-24 22:06:00,39.7,15.0,29.12,SSE,151,0.0,0.0,36,0.00,,---,0.00,VWS V14.01,2013-10-25 02:06:00,
2013-10-24 22:11:00,39.7,15.0,29.12,North,1,2.7,4.5,36,0.00,,---,0.00,VWS V14.01,2013-10-25 02:11:00,
2013-10-24 22:16:00,39.7,14.3,29.12,East,92,0.0,0.0,35,0.00,,---,0.00,VWS V14.01,2013-10-25 02:16:00,
2013-10-24 22:21:00,39.7,14.3,29.12,ESE,122,3.1,3.6,35,0.00,,---,0.00,VWS V14.01,2013-10-25 02:21:00,
2013-10-24 22:26:00,39.7,14.3,29.12,WNW,288,0.0,4.9,35,0.00,,---,0.00,VWS V14.01,2013-10-25 02:26:00,
2013-10-24 22:31:00,39.7,14.3,29.12,ESE,119,2.7,4.5,35,0.00,,---,0.00,VWS V14.01,2013-10-25 02:31:00,
2013-10-24 22:36:00,39.7,14.3,29.12,ESE,119,0.0,0.0,35,0.00,,---,0.00,VWS V14.01,2013-10-25 02:36:00,
2013-10-24 22:41:00,39.7,14.3,29.12,ESE,118,0.0,2.7,35,0.00,,---,0.00,VWS V14.01,2013-10-25 02:41:00,
2013-10-24 22:46:00,39.6,14.2,29.12,SSW,208,0.0,0.0,35,0.00,,---,0.00,VWS V14.01,2013-10-25 02:46:00,
2013-10-24 22:51:00,39.6,14.2,29.12,West,265,2.7,3.6,35,0.00,,---,0.00,VWS V14.01,2013-10-25 02:51:00,
2013-10-24 22:56:00,39.4,14.0,29.12,SSE,152,0.0,3.6,35,0.00,,---,0.00,VWS V14.01,2013-10-25 02:56:00,
2013-10-24 23:01:00,39.6,14.2,29.12,ESE,105,0.0,0.0,35,0.00,,---,0.00,VWS V14.01,2013-10-25 03:01:00,
2013-10-24 23:06:00,39.4,14.0,29.12,SE,124,2.7,4.0,35,0.00,,---,0.00,VWS V14.01,2013-10-25 03:06:00,
2013-10-24 23:11:00,39.4,14.7,29.12,SE,133,4.0,4.0,36,0.00,,---,0.00,VWS V14.01,2013-10-25 03:11:00,
2013-10-24 23:16:00,39.4,14.7,29.12,ESE,123,0.0,2.7,36,0.00,,---,0.00,VWS V14.01,2013-10-25 03:16:00,
2013-10-24 23:21:00,39.4,14.7,29.12,SE,127,0.0,4.9,36,0.00,,---,0.00,VWS V14.01,2013-10-25 03:21:00,
2013-10-24 23:26:00,39.2,13.9,29.12,East,96,2.7,4.0,35,0.00,,---,0.00,VWS V14.01,2013-10-25 03:26:00,
2013-10-24 23:31:00,39.2,13.9,29.12,SE,143,0.0,0.0,35,0.00,,---,0.00,VWS V14.01,2013-10-25 03:31:00,
2013-10-24 23:36:00,39.2,13.9,29.12,SE,145,2.7,4.9,35,0.00,,---,0.00,VWS V14.01,2013-10-25 03:36:00,
2013-10-24 23:41:00,39.2,13.9,29.12,SSE,165,0.0,0.0,35,0.00,,---,0.00,VWS V14.01,2013-10-25 03:41:00,
2013-10-24 23:46:00,39.2,13.9,29.15,South,184,0.0,0.0,35,0.00,,---,0.00,VWS V14.01,2013-10-25 03:46:00,
2013-10-24 23:51:00,39.2,14.5,29.15,SE,139,0.0,0.0,36,0.00,,---,0.00,VWS V14.01,2013-10-25 03:51:00,
2013-10-24 23:56:00,39.0,14.3,29.15,SE,146,3.6,4.0,36,0.00,,---,0.00,VWS V14.01,2013-10-25 03:56:00,